[[{"header":{"parameterUnit":"m.s-1","parameterCategory":1,"la1":30.2991,"la2":30.254,"lo1":-89.0895,"lo2":-89.0444,"dy":0.0017,"dx":0.0017,"nx":28,"ny":28,"refTime":"2024-07-29T03:00:00:Z","depth":0,"parameterNumber":2,"parameterNumberName":"U-component_of_WINDS"},"data":[0,0,0,0,0,0,0,0,0,0,0,0,0,0,0,0,0,0,0,0,0,0,0,0,0,0,0,0,0,0,0,0,0,0,0,0,0,0,0,0,0,0,0,0,0,0,0,0,0,0,0,0,0,0,0,0,0,0,1.5967,1.5968,0,1.6069,1.607,1.6071,1.6091,1.609,1.6089,1.6088,1.6199,1.6202,1.6206,0,0,0,0,0,0,0,0,0,0,0,0,0,1.5796,1.5799,1.5967,1.5969,1.597,1.6069,1.607,1.6071,1.6091,1.609,1.6089,1.6088,1.6198,1.6202,1.6206,0,0,0,0,0,0,0,0,0,0,0,0,0,1.5881,1.58,1.5967,1.5991,1.5994,1.6068,1.607,1.6072,1.6091,1.609,1.6089,1.6088,1.6196,1.6201,1.6207,1.6266,0,0,1.6224,1.6226,0,0,0,0,0,0,0,0,1.5877,1.5888,1.5987,1.599,1.5993,1.6066,1.605,1.6137,1.6092,1.6055,1.6088,1.6087,1.6156,1.6165,1.6187,1.6271,1.6275,1.6224,1.6228,1.623,1.6232,0,0,0,0,0,0,0,1.5871,1.5884,1.6008,1.5988,1.5992,1.5999,1.601,1.6067,1.6111,1.6058,1.6059,1.6071,1.6158,1.6181,1.6189,1.6277,1.6224,1.6229,1.6233,1.6235,1.6415,1.6416,0,0,0,0,0,0,1.586,1.5878,1.6004,1.6011,1.5931,1.6003,1.6015,1.6044,1.6111,1.6119,1.6072,1.6071,1.6172,1.6183,1.6193,1.6267,1.623,1.6235,1.6238,1.6414,1.6415,1.6417,0,0,0,0,0,0,1.5856,1.5871,1.6,1.5945,1.5962,1.6007,1.604,1.6047,1.607,1.6121,1.613,1.6087,1.6172,1.6186,1.6247,1.6271,1.6238,1.6243,1.6412,1.6414,1.6416,1.6414,0,0,0,0,0,0,1.5851,1.5869,1.5891,1.5945,1.5965,1.6051,1.6041,1.6049,1.6079,1.6079,1.6138,1.6147,1.6172,1.6239,1.6253,1.6278,1.6247,1.641,1.6413,1.6415,1.6412,1.6416,1.6419,0,0,0,0,0,1.5845,1.5887,1.5892,1.5907,1.5992,1.6052,1.6063,1.609,1.6081,1.6104,1.6136,1.6145,1.6266,1.6245,1.6261,1.6288,1.6409,1.6412,1.6415,1.641,1.6415,1.6419,0,0,0,0,0,0,1.5837,1.5895,1.59,1.5962,1.6001,1.6055,1.6085,1.6094,1.6139,1.6138,1.6171,1.6184,1.6244,1.6272,1.6248,1.6348,1.6337,1.6343,1.6328,1.6332,1.6336,1.6328,1.6252,0,0,0,0,0,1.5842,1.5883,1.5933,1.5982,1.6001,1.6039,1.6067,1.6083,1.6127,1.6145,1.6182,1.6225,1.6273,1.6304,1.6351,1.6416,1.6429,1.6442,1.6446,1.6448,1.6454,1.6491,1.6497,1.6428,1.6428,1.6428,0,0,1.5853,1.589,1.5915,1.5981,1.6014,1.6058,1.6054,1.6101,1.6135,1.6152,1.6212,1.6241,1.6292,1.6355,1.6385,1.6381,1.6476,1.6452,1.6454,1.6459,1.6495,1.6501,1.6507,1.643,1.643,1.6429,0,0,1.5897,1.5928,1.5973,1.6005,1.6054,1.6079,1.609,1.6142,1.6161,1.6221,1.6235,1.6277,1.6358,1.6394,1.6423,1.6479,1.6489,1.6493,1.6512,1.6547,1.6552,1.6558,1.6578,1.6585,1.6499,1.6499,1.6499,0,1.5906,1.5971,1.5995,1.6041,1.6071,1.6086,1.6133,1.6164,1.6226,1.6247,1.624,1.6343,1.6378,1.645,1.6463,1.6486,1.65,1.6487,1.6549,1.6555,1.656,1.658,1.6588,1.6499,1.6499,1.6499,1.6499,0,1.598,1.6025,1.6055,1.6113,1.6146,1.6192,1.6225,1.6255,1.6269,1.6294,1.6356,1.6399,1.6454,1.6472,1.6487,1.6547,1.6543,1.6542,1.6532,1.6566,1.6586,1.6594,1.6499,1.6499,1.6499,1.6499,0,0,1.6023,1.6092,1.6103,1.6129,1.6184,1.622,1.6267,1.6319,1.6345,1.6388,1.6429,1.6497,1.6497,1.6529,1.6548,1.6579,1.6621,1.6575,1.6577,1.6583,1.6691,1.6691,1.67,1.6627,1.6629,1.663,1.6687,0,1.6074,1.6156,1.6179,1.625,1.6292,1.6307,1.6348,1.6387,1.6412,1.6454,1.6483,1.653,1.6526,1.6546,1.6577,1.6609,1.6644,1.6606,1.6668,1.667,1.6656,1.671,1.6711,1.6762,1.6694,1.6696,1.6697,0,1.6145,1.6186,1.626,1.6309,1.6328,1.6364,1.6414,1.6452,1.6497,1.6513,1.6549,1.6564,1.6616,1.6601,1.6673,1.6646,1.6673,1.6693,1.6696,1.6704,1.6686,1.672,1.6779,1.6787,1.6709,1.6708,1.6707,0,1.617,1.6244,1.6298,1.632,1.6378,1.6403,1.6429,1.6472,1.6502,1.6546,1.6566,1.6616,1.6644,1.6683,1.6712,1.6698,1.6782,1.6769,1.6798,1.6798,1.6816,1.6815,1.6881,1.6832,1.6832,1.6831,1.6831,0,1.6225,1.627,1.631,1.6343,1.6395,1.6421,1.6471,1.6498,1.6536,1.6576,1.6592,1.663,1.6666,1.6708,1.6732,1.6788,1.6801,1.6816,1.6822,1.6816,1.6814,1.6835,1.6832,1.6834,1.6833,1.6833,1.6832,0,1.6263,1.6291,1.6351,1.6399,1.6413,1.6449,1.6491,1.6525,1.655,1.6601,1.6614,1.6654,1.6705,1.6738,1.6804,1.6819,1.6881,1.6886,1.6866,1.6869,1.6896,1.6894,1.6979,1.6992,1.6933,1.6933,1.6934,0,1.6297,1.6331,1.6383,1.641,1.6435,1.6478,1.6508,1.6535,1.6566,1.6619,1.6647,1.6698,1.6741,1.6822,1.6859,1.6909,1.6915,1.6942,1.6923,1.6915,1.6917,1.6915,1.6919,1.6945,1.6946,1.6946,1.6947,0,1.6354,1.6366,1.6407,1.6453,1.6488,1.6526,1.6565,1.6586,1.662,1.6654,1.6705,1.6738,1.6804,1.6856,1.6909,1.6937,1.6949,1.6952,1.6961,1.6956,1.6943,1.6951,1.6875,1.695,1.695,1.695,1.6949,1.6949,1.6392,1.6423,1.6464,1.651,1.6541,1.6576,1.661,1.6638,1.668,1.6735,1.6749,1.6802,1.6847,1.6919,1.6948,1.6992,1.6989,1.7002,1.7006,1.7009,1.701,1.6934,1.7002,1.7001,1.7001,1.7001,1.7001,0,1.6451,1.6478,1.6519,1.6571,1.6607,1.6611,1.6654,1.6684,1.673,1.6769,1.681,1.6869,1.6919,1.6958,1.701,1.7037,1.7044,1.705,1.7049,1.7056,1.701,1.6996,1.7044,1.7044,1.7044,1.7044,1.7044,1.7044,1.6486,1.654,1.6556,1.6625,1.6652,1.6703,1.6727,1.676,1.6791,1.6856,1.6896,1.692,1.696,1.7014,1.7061,1.7071,1.709,1.7095,1.7107,1.7064,1.7059,1.7055,1.7042,1.7099,1.7099,1.715,1.715,1.7151]},{"header":{"parameterUnit":"m.s-1","parameterCategory":1,"la1":30.2991,"la2":30.254,"lo1":-89.0895,"lo2":-89.0444,"dy":0.0017,"dx":0.0017,"nx":28,"ny":28,"refTime":"2024-07-29T03:00:00:Z","depth":0,"parameterNumber":3,"parameterNumberName":"V-component_of_WINDS"},"data":[0,0,0,0,0,0,0,0,0,0,0,0,0,0,0,0,0,0,0,0,0,0,0,0,0,0,0,0,0,0,0,0,0,0,0,0,0,0,0,0,0,0,0,0,0,0,0,0,0,0,0,0,0,0,0,0,0,0,2.0587,2.0587,0,2.0572,2.0572,2.0571,2.0552,2.0552,2.0552,2.0551,2.0533,2.0533,2.0533,0,0,0,0,0,0,0,0,0,0,0,0,0,2.0595,2.0595,2.0587,2.0587,2.0587,2.0572,2.0572,2.0571,2.0552,2.0552,2.0552,2.0551,2.0533,2.0533,2.0532,0,0,0,0,0,0,0,0,0,0,0,0,0,2.0587,2.0595,2.0587,2.0576,2.0574,2.0572,2.0572,2.0571,2.0552,2.0552,2.0551,2.0551,2.0533,2.0533,2.0532,2.0539,0,0,2.0531,2.0531,0,0,0,0,0,0,0,0,2.0587,2.0587,2.0578,2.0576,2.0575,2.0564,2.0568,2.0561,2.0552,2.0561,2.0551,2.0551,2.0543,2.0542,2.054,2.0539,2.0538,2.0531,2.0531,2.0531,2.0531,0,0,0,0,0,0,0,2.0588,2.0587,2.0581,2.0577,2.0576,2.0569,2.0568,2.0566,2.0555,2.056,2.0559,2.0557,2.0543,2.054,2.054,2.0537,2.0531,2.0531,2.0531,2.0531,2.0537,2.0537,0,0,0,0,0,0,2.0591,2.0588,2.0582,2.0581,2.058,2.057,2.0568,2.0568,2.0555,2.0552,2.0557,2.0556,2.0541,2.054,2.0539,2.0544,2.0531,2.0531,2.0531,2.0536,2.0537,2.0537,0,0,0,0,0,0,2.0591,2.0591,2.0582,2.0584,2.0582,2.057,2.057,2.0568,2.0566,2.0553,2.055,2.0558,2.0541,2.0539,2.0539,2.0543,2.0531,2.053,2.0536,2.0536,2.0537,2.0555,0,0,0,0,0,0,2.0591,2.0591,2.0595,2.0584,2.0582,2.0584,2.057,2.0568,2.0565,2.0564,2.0552,2.055,2.054,2.0539,2.0538,2.0542,2.053,2.0535,2.0536,2.0537,2.0554,2.0556,2.0558,0,0,0,0,0,2.0592,2.0601,2.0595,2.0594,2.0587,2.0584,2.0583,2.0573,2.0566,2.0569,2.056,2.055,2.0543,2.0539,2.0538,2.0542,2.0535,2.0536,2.0537,2.0553,2.0556,2.0558,0,0,0,0,0,0,2.0612,2.0599,2.0593,2.0599,2.0593,2.0581,2.0585,2.0576,2.0571,2.057,2.0556,2.0553,2.0554,2.0548,2.0545,2.0546,2.0537,2.0538,2.055,2.0552,2.0554,2.0555,2.053,0,0,0,0,0,2.0617,2.0617,2.0606,2.0612,2.0609,2.0597,2.0596,2.0588,2.0581,2.0578,2.0569,2.0562,2.0557,2.0554,2.055,2.0553,2.0548,2.0554,2.0556,2.0558,2.0558,2.0556,2.0558,2.054,2.054,2.054,0,0,2.0628,2.0621,2.0622,2.0616,2.061,2.0608,2.0595,2.0595,2.0593,2.0578,2.0576,2.0569,2.0559,2.056,2.056,2.0555,2.0562,2.0559,2.056,2.056,2.0557,2.0559,2.0561,2.054,2.054,2.054,0,0,2.0646,2.0642,2.0645,2.064,2.0631,2.0623,2.0623,2.0612,2.0607,2.0606,2.0593,2.0589,2.0583,2.0575,2.0571,2.0583,2.0573,2.0581,2.0592,2.059,2.0591,2.0592,2.0595,2.0596,2.0582,2.0582,2.0582,0,2.0661,2.0659,2.0648,2.0648,2.0644,2.063,2.0631,2.0626,2.0616,2.0613,2.0608,2.0597,2.059,2.0587,2.0589,2.0587,2.0585,2.0583,2.0592,2.0593,2.0594,2.0596,2.0597,2.0583,2.0583,2.0583,2.0583,0,2.0675,2.0674,2.0678,2.0668,2.0665,2.0666,2.0653,2.065,2.0642,2.0633,2.063,2.062,2.0612,2.061,2.0603,2.0605,2.0602,2.0595,2.0586,2.0597,2.0598,2.0599,2.0584,2.0584,2.0584,2.0584,0,0,2.0707,2.069,2.0691,2.0686,2.0674,2.0672,2.067,2.0663,2.066,2.0653,2.0649,2.0643,2.0635,2.0629,2.062,2.0619,2.0625,2.0611,2.061,2.0612,2.0625,2.063,2.0631,2.0619,2.0619,2.0619,2.0625,0,2.0722,2.072,2.0709,2.0709,2.0706,2.0691,2.0689,2.0681,2.0672,2.0667,2.0656,2.0651,2.0642,2.0638,2.0636,2.0625,2.0628,2.0625,2.0614,2.0614,2.0616,2.0632,2.0638,2.0645,2.0626,2.0626,2.0626,0,2.074,2.0733,2.0733,2.0719,2.0717,2.0716,2.0706,2.0703,2.0691,2.0685,2.0677,2.0666,2.0662,2.0653,2.0645,2.0643,2.0638,2.0631,2.0631,2.0629,2.062,2.0629,2.0647,2.0647,2.0627,2.0627,2.0627,0,2.076,2.0751,2.075,2.0746,2.0729,2.0728,2.0721,2.071,2.0705,2.0696,2.0692,2.0682,2.0677,2.0668,2.0654,2.065,2.0647,2.0638,2.0639,2.064,2.0639,2.0639,2.0655,2.0638,2.0638,2.0637,2.0637,0,2.0777,2.0777,2.0758,2.0757,2.0756,2.0742,2.074,2.0732,2.0721,2.0716,2.0702,2.0698,2.068,2.0673,2.0661,2.0655,2.0653,2.0646,2.0643,2.0647,2.0647,2.0643,2.0641,2.0638,2.0638,2.0638,2.0638,0,2.08,2.0788,2.0784,2.0769,2.0764,2.0764,2.075,2.0747,2.0736,2.073,2.0728,2.0711,2.0702,2.0687,2.0673,2.0665,2.066,2.0656,2.0664,2.0662,2.0664,2.0663,2.0676,2.0676,2.066,2.066,2.066,0,2.0811,2.0811,2.0795,2.0791,2.0784,2.0778,2.0773,2.0758,2.0752,2.0738,2.0736,2.0725,2.0716,2.0701,2.0687,2.0675,2.067,2.0675,2.0668,2.0671,2.0668,2.0668,2.0667,2.0676,2.0677,2.0677,2.0677,0,2.0831,2.0825,2.0818,2.0808,2.0802,2.0794,2.0784,2.0782,2.0764,2.0758,2.0748,2.0741,2.0726,2.0715,2.0701,2.0692,2.0681,2.0679,2.0679,2.0682,2.0687,2.0683,2.0667,2.0679,2.0679,2.0679,2.0679,2.0678,2.0847,2.0845,2.0833,2.0825,2.0816,2.0807,2.0803,2.0792,2.0784,2.0771,2.0762,2.0752,2.0738,2.0718,2.071,2.07,2.0696,2.0695,2.0695,2.0695,2.0696,2.0689,2.0698,2.0698,2.0698,2.0698,2.0698,0,2.0865,2.0856,2.0849,2.0836,2.0829,2.082,2.0808,2.0803,2.0795,2.0783,2.0774,2.0761,2.075,2.0734,2.0721,2.0716,2.071,2.0713,2.0713,2.071,2.0701,2.0703,2.0718,2.0718,2.0718,2.0718,2.0718,2.0718,2.0873,2.0869,2.086,2.085,2.0841,2.0832,2.0825,2.0816,2.0807,2.0793,2.0784,2.0774,2.076,2.0745,2.0733,2.0729,2.0724,2.0728,2.0721,2.0713,2.0711,2.071,2.071,2.0727,2.0727,2.0731,2.0731,2.0731]}]]